Weather History for Wautoma, WI

Change the Weather History Date:

Sunday, September 1, 2013

  Actual Average (KPCZ) Record (KPCZ)
Temperature  
Mean Temperature 74 °F -  
Max Temperature 86 °F 76 °F 97 °F (1953)
Min Temperature 61 °F 53 °F 39 °F (1949)
Cooling Degree Days 8    
Growing Degree Days 24 (Base 50)    
Moisture  
Dew Point 62 °F    
Average Humidity 65    
Maximum Humidity 100    
Minimum Humidity 36    
Precipitation  
Precipitation 0.00 in - - ()
Sea Level Pressure  
Sea Level Pressure 29.78 in    
Wind  
Wind Speed 4 mph (West)    
Max Wind Speed 18 mph    
Max Gust Speed 24 mph    
Visibility 6 miles    
Events Fog    
Averages and records for this station are not official NWS values.
T = Trace of Precipitation, MM = Missing Value Source: NWS Daily Summary

Daily Weather History Graph

Daily Weather History Graph

Search for Another Location

Airport:

Trip Planner

Search our weather history database for the weather conditions in past years. The results will help you decide how hot, cold, wet, or windy it might be!

Date:

Astronomy

Sep. 01, 2013 Rise Set
Actual Time 6:20 AM CDT 7:32 PM CDT
Civil Twilight 5:50 AM CDT 8:02 PM CDT
Nautical Twilight 5:15 AM CDT 8:37 PM CDT
Astronomical Twilight 4:37 AM CDT 9:15 PM CDT
Moon 2:37 AM CDT (9/1) 5:14 PM CDT (9/1)
Length of Visible Light 14h 11m
Length of Day
13h 11m
Waning Crescent, 13% of the Moon is Illuminated
Sep 1
Waning Crescent
Sep 5
New
Sep 12
First Quarter
Sep 19
Full
Sep 26
Last Quarter

Hourly Weather History & Observations

Time (CDT) Temp. Heat Index Dew Point Humidity Pressure Visibility Wind Dir Wind Speed Gust Speed Precip Events Conditions
12:56 AM 61.0 °F - - N/A% 29.81 in 10.0 mi Calm Calm - N/A   Clear
1:56 AM 63.0 °F - - N/A% 29.77 in 8.0 mi Calm Calm - N/A   Clear
2:56 AM 61.9 °F - - N/A% 29.79 in 8.0 mi West 5.8 mph - N/A   Clear
3:56 AM 63.0 °F - - N/A% 29.79 in 6.0 mi Calm Calm - N/A   Haze
4:56 AM 63.0 °F - - N/A% 29.75 in 4.0 mi Calm Calm - N/A   Haze
5:08 AM 62.6 °F - - N/A% 29.78 in 5.0 mi Calm Calm - N/A   Haze
5:21 AM 62.6 °F - - N/A% 29.78 in 5.0 mi Calm Calm - N/A   Haze
5:56 AM 63.0 °F - - N/A% 29.77 in 8.0 mi Calm Calm - N/A   Overcast
6:37 AM 64.4 °F - - N/A% 29.79 in 1.8 mi Calm Calm - N/A   Overcast
6:39 AM 64.4 °F - - N/A% 29.80 in 1.0 mi Calm Calm - N/A   Overcast
6:41 AM 64.4 °F - - N/A% 29.80 in 0.5 mi Calm Calm - N/A Fog Fog
6:49 AM 64.4 °F - - N/A% 29.79 in 0.2 mi Calm Calm - N/A Fog Fog
6:56 AM 63.9 °F - - N/A% 29.77 in 0.2 mi South 3.5 mph - N/A Fog Fog
7:13 AM 64.4 °F - - N/A% 29.79 in 0.2 mi SSW 4.6 mph - N/A Fog Fog
7:31 AM 64.4 °F - - N/A% 29.79 in 0.2 mi Variable 3.5 mph - N/A Fog Fog
7:42 AM 64.4 °F - - N/A% 29.79 in 0.2 mi South 3.5 mph - N/A Fog Fog
7:48 AM 64.4 °F - - N/A% 29.79 in 0.8 mi South 4.6 mph - N/A   Overcast
7:56 AM 64.9 °F - - N/A% 29.77 in 1.2 mi Variable 3.5 mph - N/A   Overcast
8:01 AM 66.2 °F - - N/A% 29.79 in 2.0 mi SW 3.5 mph - N/A   Overcast
8:10 AM 66.2 °F - - N/A% 29.79 in 5.0 mi Variable 3.5 mph - N/A   Haze
8:35 AM 69.8 °F - 69.8 °F 100% 29.78 in 10.0 mi SSW 8.1 mph - N/A   Scattered Clouds
8:56 AM 70.9 °F - 70.9 °F 100% 29.76 in 10.0 mi SSW 9.2 mph - N/A   Partly Cloudy
9:56 AM 75.9 °F - 72.9 °F 90% 29.75 in 10.0 mi SW 9.2 mph - N/A   Clear
10:56 AM 81.9 °F 86.0 °F 70.9 °F 69% 29.73 in 10.0 mi West 9.2 mph - N/A   Partly Cloudy
11:56 AM 81.9 °F 84.8 °F 68.0 °F 63% 29.72 in 10.0 mi West 12.7 mph - N/A   Mostly Cloudy
12:56 PM 86.0 °F 88.2 °F 66.2 °F 51% 29.73 in 10.0 mi WNW 11.5 mph 19.6 mph N/A   Scattered Clouds
1:56 PM 84.9 °F 85.0 °F 61.0 °F 44% 29.71 in 10.0 mi WNW 17.3 mph 21.9 mph N/A   Partly Cloudy
2:56 PM 86.9 °F 85.6 °F 56.8 °F 36% 29.71 in 10.0 mi NNW 13.8 mph 20.7 mph N/A   Clear
3:56 PM 82.9 °F 82.6 °F 57.9 °F 42% 29.73 in 10.0 mi NNW 15.0 mph 21.9 mph N/A   Clear
4:56 PM 81.0 °F 81.0 °F 56.8 °F 44% 29.74 in 10.0 mi North 18.4 mph 24.2 mph N/A   Clear
5:56 PM 77.9 °F - 54.9 °F 45% 29.77 in 10.0 mi NNW 12.7 mph 19.6 mph N/A   Clear
6:56 PM 75.9 °F - 55.9 °F 50% 29.79 in 10.0 mi NW 9.2 mph - N/A   Mostly Cloudy
7:56 PM 74.8 °F - 57.9 °F 55% 29.81 in 10.0 mi North 5.8 mph - N/A   Overcast
8:56 PM 70.9 °F - 57.9 °F 63% 29.81 in 10.0 mi NNW 4.6 mph - N/A   Scattered Clouds
9:56 PM 65.8 °F - 59.9 °F 81% 29.82 in 10.0 mi Calm Calm - N/A   Partly Cloudy
10:56 PM 63.9 °F - 61.0 °F 90% 29.83 in 10.0 mi Calm Calm - N/A   Scattered Clouds
11:56 PM 65.8 °F - 61.9 °F 87% 29.84 in 10.0 mi NW 6.9 mph - N/A   Mostly Cloudy